This demonstration page uses our WeatherBlox Daily Observations layout. Learn more.

Left ArrowRight Arrow

41.86663, -103.66717

Hourly Observations for December 17, 2020

Temp ( °F °C ) Dew Point ( °F °C ) Humidity (%) Winds ( mph kmh ) Pressure ( in mb ) Visibility ( mi km ) Precip ( " mm )
12:53 am 00:53 Clear 19 -7.2 14 -10 81 81 N 7 11 30.11 1020 10 16 0.00 0.00
1:53 am 01:53 Clear 19 -7.2 13 -10.6 77 77 N 3 6 30.09 1019 10 16 0.00 0.00
2:53 am 02:53 Clear 19 -7.2 13 -10.6 77 77 Calm 30.08 1019 10 16 0.00 0.00
3:53 am 03:53 Clear 17 -8.3 11 -11.7 77 77 E 6 9 30.08 1019 10 16 0.00 0.00
4:53 am 04:53 Clear 17 -8.3 11 -11.7 77 77 ENE 6 9 30.05 1018 10 16 0.00 0.00
5:53 am 05:53 Clear 18 -7.8 12 -11.1 77 77 E 5 7 30.04 1017 10 16 0.00 0.00
6:53 am 06:53 Clear 20 -6.7 14 -10 78 78 E 7 11 30.02 1017 10 16 0.00 0.00
7:53 am 07:53 Sunny 22 -5.6 16 -8.9 78 78 E 8 13 30.02 1017 10 16 0.00 0.00
8:53 am 08:53 Sunny 27 -2.8 20 -6.7 75 75 E 8 13 29.99 1016 10 16 0.00 0.00
9:53 am 09:53 Sunny 33 0.6 23 -5 66 66 ESE 7 11 29.97 1015 10 16 0.00 0.00
10:53 am 10:53 Sunny 39 3.9 23 -5 53 53 ESE 5 7 29.93 1014 10 16 0.00 0.00
11:53 am 11:53 Sunny 45 7.2 23 -5 42 42 S 6 9 29.87 1012 10 16 0.00 0.00
12:53 pm 12:53 Sunny 50 10 20 -6.7 30 30 SW 5 7 29.83 1010 10 16 0.00 0.00
1:53 pm 13:53 Mostly Cloudy 52 11.1 19 -7.2 27 27 SSW 7 11 29.80 1009 10 16 0.00 0.00
2:53 pm 14:53 Mostly Cloudy 49 9.4 25 -3.9 39 39 NNW 3 6 29.79 1009 10 16 0.00 0.00
3:53 pm 15:53 Cloudy 44 6.7 26 -3.3 49 49 NE 3 6 29.80 1009 10 16 0.00 0.00
4:53 pm 16:53 Partly Cloudy 38 3.3 26 -3.3 62 62 E 5 7 29.80 1009 10 16 0.00 0.00
5:53 pm 17:53 Mostly Clear 39 3.9 24 -4.4 55 55 VRB 3 6 29.78 1009 10 16 0.00 0.00
6:53 pm 18:53 Cloudy 39 3.9 23 -5 53 53 E 10 17 29.77 1008 10 16 0.00 0.00
7:53 pm 19:53 Mostly Cloudy 36 2.2 20 -6.7 52 52 E 6 9 29.77 1008 10 16 0.00 0.00
8:53 pm 20:53 Cloudy 34 1.1 22 -5.6 61 61 Calm 29.76 1008 10 16 0.00 0.00
9:53 pm 21:53 Mostly Cloudy 33 0.6 23 -5 66 66 Calm 29.75 1007 10 16 0.00 0.00
10:53 pm 22:53 Clear 32 0 22 -5.6 66 66 NNW 3 6 29.76 1008 10 16 0.00 0.00
11:53 pm 23:53 Partly Cloudy 31 -0.6 23 -5 72 72 N 3 6 29.76 1008 10 16 0.00 0.00

Powered by AerisWeather